Temp
15 14 15 15 16 16 16 17 17 18 18 19 19 20 20 21 22 21 25 25 25 24 24 24 25 25 25 26 25 25 27 27 27 27 28 26 27 26 26 26 25 25 26 23 21
14 13 15 16 16 16 17 17 17 18 18 19 19 20 20 20 20 24 24 25 24 24 24 26 27 26 27 26 26 27 26 27 27 28 28 27 27 27 26 27 26 25 22 20 19
14 13 15 16 16 16 17 17 18 18 18 19 19 20 20 20 23 26 24 24 24 24 24 24 25 26 26 26 26 26 26 27 27 27 27 27 26 27 27 26 29 28 27 21 20
13 14 15 15 16 16 17 18 18 18 19 19 20 20 20 20 26 24 24 24 24 24 24 25 27 26 26 26 26 25 27 26 27 26 26 26 27 27 27 29 29 29 28 23 22
14 14 15 15 16 16 17 18 18 19 19 20 20 20 20 24 25 23 24 24 24 24 25 26 26 26 26 26 26 26 27 26 26 25 26 25 26 27 27 28 27 26 25 24 24
13 14 14 15 15 16 17 18 18 19 19 20 20 19 21 24 23 23 24 24 24 24 25 25 26 26 26 25 25 25 25 26 26 26 26 25 27 24 28 29 28 25 25 25 25
13 13 13 14 15 16 17 18 18 19 19 20 19 19 22 25 23 23 23 24 24 24 25 24 24 25 25 25 24 25 25 27 27 26 26 25 26 25 28 28 28 27 27 26 25
12 12 13 14 14 15 17 18 18 18 19 19 19 18 24 23 23 23 23 24 23 23 23 22 23 24 25 24 25 25 25 26 26 24 24 24 26 29 29 27 26 28 28 26 25
11 11 12 13 14 15 16 18 18 17 18 18 18 20 24 23 23 22 23 25 24 23 22 22 23 23 24 25 26 25 27 26 26 25 24 24 26 29 25 25 27 28 27 27 26
10 11 11 12 13 15 16 18 17 17 17 17 18 21 24 23 21 22 22 23 24 24 24 24 24 25 25 26 26 26 26 26 25 26 24 25 25 27 28 25 27 28 28 27 26
10 10 11 12 13 14 16 17 20 21 19 20 19 20 21 20 20 23 22 24 24 25 24 23 25 26 26 25 24 24 24 25 26 25 23 25 26 27 28 27 26 27 28 28 27
10 10 11 12 13 14 14 16 13 12 17 16 16 17 18 18 22 24 22 24 24 24 23 24 25 24 22 22 23 23 24 26 26 23 22 26 25 27 27 27 27 27 28 29 29
10 10 11 13 13 13 13 12 11 11 16 19 18 19 20 20 23 24 23 23 24 23 24 24 24 21 22 23 23 24 24 25 24 24 24 23 29 29 27 25 24 25 26 27 28
10 10 11 13 14 11 13 11 11 11 21 22 21 21 20 21 22 22 22 23 23 23 22 23 22 22 22 23 24 24 23 22 22 23 25 23 28 30 28 29 29 28 27 26 26
10 10 11 11 11 13 11 11 11 13 26 21 21 21 21 22 22 22 21 23 23 23 22 24 23 22 23 24 23 24 21 22 21 23 22 24 24 31 29 28 27 27 26 25 25
10 10 10 10 11 10 11 12 13 21 25 22 21 21 22 22 22 22 22 23 22 22 22 23 21 22 23 21 21 21 22 22 20 22 25 23 23 29 27 25 25 26 26 25 25
10 10 10 9 12 11 12 15 22 24 21 21 21 21 21 22 22 22 22 23 23 23 23 23 22 21 21 22 21 22 23 25 26 26 26 21 23 26 26 24 24 24 25 26 26
10 11 10 10 10 11 13 19 22 20 20 19 19 21 21 21 21 21 21 23 21 22 23 23 24 22 21 22 23 22 23 25 24 26 25 20 25 26 25 24 23 25 26 25 25
10 10 10 10 11 11 17 21 20 18 17 18 20 21 21 20 20 21 21 21 21 21 22 23 23 20 20 20 21 21 22 21 23 20 22 25 25 26 25 25 24 25 25 25 25
8 9 12 11 11 13 19 17 17 16 16 17 19 20 21 20 21 21 21 18 19 19 20 22 22 20 20 20 19 21 21 22 23 23 24 26 25 28 26 27 26 26 25 25 24
8 12 12 12 12 16 18 16 15 16 16 17 17 18 18 18 18 21 20 17 16 18 19 21 21 21 20 21 23 20 22 21 21 22 24 25 28 28 27 25 25 25 25 25 25
8 13 12 13 15 13 15 13 13 15 16 16 16 16 17 17 18 19 19 17 15 16 19 19 21 22 23 19 19 20 22 23 23 22 21 21 24 25 25 24 25 26 26 25 25
8 9 11 10 13 14 13 14 14 14 14 15 15 15 15 16 17 17 16 14 14 15 15 18 20 21 23 20 19 20 20 20 19 20 22 22 25 25 25 27 26 25 24 24 24
9 11 11 11 10 12 11 12 13 13 13 13 13 14 15 15 15 15 15 14 13 14 14 16 19 19 21 19 18 19 19 19 20 21 22 22 24 25 25 24 24 23 23 23 22
8 8 7 9 10 10 11 11 12 11 12 13 12 12 12 14 15 14 13 14 14 13 15 15 16 17 17 17 17 18 18 18 18 20 20 22 22 23 23 21 21 21 19 19 19
8 8 8 8 8 10 10 10 10 10 11 11 10 10 11 12 12 10 11 13 13 14 13 14 16 16 16 18 18 17 18 18 18 18 19 20 20 17 18 18 18 18 18 18 18
5 5 8 7 8 9 9 9 9 10 10 10 9 10 10 11 11 11 12 12 12 12 12 13 14 16 16 18 17 17 20 20 20 20 20 19 16 15 15 16 17 17 17 16 17
Height
868 864 861 858 855 852 848 845 840 836 833 830 828 825 822 819 815 814 811 811 810 809 809 807 806 804 803 803 804 802 809 809 806 806 798 799 802 800 801 801 805 804 803 809 813
867 863 860 857 854 850 847 843 839 835 832 829 826 823 821 817 814 811 810 809 809 808 808 806 803 803 801 802 803 802 809 805 797 795 796 797 798 797 802 801 802 803 807 811 814
866 862 859 855 852 849 845 841 837 833 830 826 824 822 819 817 813 807 808 808 808 808 807 807 805 803 803 802 802 802 806 797 796 795 795 796 799 796 798 802 791 793 797 808 811
864 861 857 854 850 846 842 838 834 830 826 822 821 820 818 817 819 808 808 808 808 807 807 806 803 804 806 806 802 808 797 799 796 796 797 797 793 795 793 787 786 787 790 802 805
863 859 856 852 848 844 839 835 830 826 821 818 817 818 818 815 809 808 807 808 808 807 807 804 803 805 808 805 803 804 799 799 796 797 796 796 794 791 790 784 787 790 793 796 799
861 858 854 849 845 841 836 832 827 822 818 815 815 816 818 817 808 807 807 807 808 807 807 805 804 804 804 805 805 801 801 798 797 795 795 797 790 796 781 779 781 788 788 790 792
860 856 852 847 842 838 833 829 824 819 816 813 813 814 814 809 807 807 807 807 807 808 807 807 806 805 804 806 804 802 805 794 791 793 796 796 794 788 774 776 777 778 780 784 787
858 854 849 845 840 835 829 825 821 817 815 814 813 814 807 806 806 806 806 807 807 807 808 808 808 806 805 805 804 804 803 803 794 797 795 798 789 769 766 773 775 772 773 778 782
857 852 847 842 836 831 826 821 817 816 815 814 815 814 806 805 806 806 806 806 807 808 808 808 808 808 807 806 805 804 801 802 797 793 795 796 784 766 772 774 771 768 769 772 776
856 851 845 839 833 828 822 817 814 815 815 814 814 816 805 806 806 805 805 806 806 806 806 806 806 805 806 805 808 806 805 801 802 791 795 793 782 767 763 771 765 761 762 766 769
855 850 844 837 831 826 820 816 816 815 815 812 814 812 808 808 806 805 805 805 805 805 809 810 809 805 802 804 806 807 808 805 793 792 800 785 774 760 756 757 760 758 756 757 761
854 849 842 836 830 828 825 825 834 836 822 816 815 814 811 811 808 804 806 806 806 809 810 811 807 804 808 810 811 809 807 798 791 797 800 778 770 753 747 747 747 751 749 749 753
853 848 841 835 831 831 832 834 834 833 826 813 812 810 809 810 805 804 805 805 807 811 810 810 807 810 810 808 810 804 806 801 806 797 787 789 751 749 750 750 753 752 749 747 746
853 848 842 835 835 834 834 834 832 832 814 811 809 808 809 808 808 806 805 806 808 810 812 809 809 811 809 808 805 808 805 808 807 803 796 794 776 749 751 744 743 743 745 746 747
853 847 842 837 837 836 837 832 831 833 807 812 809 807 806 807 809 806 806 804 808 808 813 804 808 810 809 803 804 802 807 807 808 805 807 795 795 750 749 752 753 748 747 746 747
852 846 841 838 837 836 833 831 832 819 810 813 809 809 808 807 806 806 805 805 807 809 809 805 808 807 801 806 807 808 807 807 810 805 800 799 800 766 769 773 765 755 750 749 747
851 845 840 839 838 834 831 830 819 809 812 818 816 811 811 810 809 808 809 808 808 813 809 804 807 806 807 807 806 806 804 800 795 794 792 805 800 780 774 772 769 764 757 753 749
849 844 842 840 837 834 832 824 823 823 822 822 819 814 813 813 813 812 811 809 811 811 809 808 803 807 807 804 803 806 805 802 813 799 795 810 792 783 774 769 768 761 757 756 751
848 843 843 841 836 834 829 820 821 831 832 829 817 816 814 816 816 813 812 813 813 812 813 809 807 808 810 808 809 810 810 810 810 820 811 787 780 772 771 766 766 761 757 755 752
850 847 844 840 837 835 825 830 833 836 835 831 824 821 819 820 816 814 814 826 822 818 815 808 811 810 810 809 811 808 807 810 807 814 806 782 785 765 769 761 758 757 757 757 754
851 846 846 840 839 833 827 835 839 837 837 834 831 828 827 826 824 816 821 829 830 822 817 812 812 809 810 806 799 812 808 811 809 807 801 797 768 752 757 764 766 762 759 756 753
854 846 848 842 840 845 838 846 847 841 838 836 834 833 832 831 824 821 823 829 835 828 821 816 811 808 799 806 807 805 800 799 804 809 810 810 785 759 759 764 761 758 757 756 754
862 860 852 847 844 846 848 848 847 845 845 843 841 841 838 833 830 829 833 841 838 833 836 823 812 808 794 809 811 807 807 807 811 809 803 805 779 760 761 754 758 760 756 754 754
865 857 859 859 864 857 857 856 851 851 851 851 849 845 842 837 838 836 837 840 841 838 835 828 819 814 806 817 820 813 811 811 807 806 795 788 780 767 764 761 760 764 762 761 762
871 874 878 868 866 866 863 861 857 857 855 854 856 856 855 845 839 843 845 841 840 843 836 832 826 823 819 819 818 815 814 810 812 800 800 785 784 777 774 778 777 771 773 770 767
874 875 878 877 874 868 868 866 866 865 864 860 862 865 861 858 857 860 857 847 843 842 842 838 827 824 819 811 811 808 804 804 803 801 793 790 784 795 792 787 783 781 780 776 771
881 882 879 883 877 873 872 872 872 870 868 871 873 869 862 860 863 861 858 855 852 850 847 845 833 822 810 808 809 800 781 776 778 779 782 786 799 803 798 794 790 786 782 780 775
Wind_Speed
15 19 19 21 22 23 24 25 27 23 19 18 16 16 17 19 19 7 6 2 1 5 5 4 1 2 2 2 0 2 5 6 6 7 3 5 8 4 0 4 4 6 2 5 16
15 18 19 22 23 25 26 27 26 23 21 18 16 16 16 19 12 7 3 3 2 3 2 4 1 2 2 2 2 4 5 5 2 3 3 2 8 5 6 8 8 7 6 9 19
16 18 21 22 24 26 27 29 27 24 23 20 17 15 14 14 6 3 1 1 1 2 1 1 1 2 1 2 2 2 6 3 5 6 4 3 6 5 8 8 9 10 13 14 19
16 20 22 23 25 27 29 30 28 30 28 20 14 12 12 4 2 2 1 0 1 2 1 1 2 1 2 3 1 6 5 6 3 2 3 5 1 6 12 13 1 7 7 18 18
19 21 23 25 27 28 29 31 30 33 25 15 9 6 3 4 4 2 1 0 1 1 1 1 2 1 3 2 3 7 5 3 4 6 7 4 10 11 11 15 8 3 10 16 16
21 23 25 26 28 30 30 31 30 30 19 12 5 1 2 7 2 2 2 1 1 1 1 1 1 1 3 3 5 2 7 9 6 8 7 7 13 4 14 12 15 13 14 16 18
22 24 26 28 29 30 30 30 29 23 15 6 4 4 4 7 2 3 2 1 1 1 1 1 0 4 0 3 1 4 8 10 11 7 6 4 15 17 20 12 17 16 17 16 16
23 26 28 29 30 31 31 28 30 13 8 1 3 2 4 3 5 5 3 2 1 1 2 1 1 1 3 0 3 4 4 5 5 3 2 5 16 12 8 12 16 16 15 16 18
23 25 28 29 28 28 28 25 20 4 2 2 0 3 2 3 0 3 3 2 3 3 3 2 0 1 3 5 5 4 4 5 5 3 2 8 15 8 3 9 11 12 14 16 16
25 27 28 28 26 24 22 23 3 2 2 0 1 4 1 1 3 2 2 2 2 2 3 2 2 4 4 5 3 2 6 4 7 1 7 14 23 22 19 14 17 14 12 14 17
26 28 30 30 26 16 20 4 2 4 3 4 2 4 3 8 2 2 2 5 2 2 4 1 6 6 4 3 4 5 6 9 11 5 6 14 21 24 18 17 18 18 16 16 16
27 30 32 31 18 11 10 6 5 4 6 2 5 7 8 4 3 3 2 4 3 4 2 5 7 1 0 2 4 5 9 11 9 2 7 15 25 23 12 14 17 17 17 19 17
28 30 33 29 7 8 11 9 11 4 4 2 2 3 2 6 2 1 3 2 3 4 5 8 2 2 2 3 6 7 9 11 10 12 7 13 8 7 4 3 2 9 13 14 16
28 31 32 26 3 9 3 14 11 7 3 3 1 2 3 2 3 2 1 2 3 3 2 6 1 4 5 7 7 9 0 4 8 10 6 8 5 7 10 10 14 12 7 7 13
29 31 30 14 7 4 8 16 3 3 3 2 2 2 2 2 2 2 0 2 7 3 3 1 2 4 5 3 5 2 1 4 4 8 9 2 4 5 7 13 20 17 14 9 5
30 32 26 7 6 4 14 12 3 4 1 2 1 0 3 2 2 1 1 2 0 4 6 14 1 4 4 2 1 1 4 4 2 2 4 3 3 8 9 13 15 18 19 15 9
32 31 13 6 6 14 11 3 4 4 1 3 2 2 2 1 2 1 2 5 3 4 1 2 3 1 2 6 3 4 7 3 3 2 3 2 4 7 8 10 11 14 16 18 18
31 22 7 9 13 10 5 3 5 3 3 3 4 4 2 2 1 0 2 3 4 4 4 3 3 1 1 4 3 1 3 4 4 3 4 3 3 5 3 3 6 11 15 14 19
31 11 6 15 9 5 3 4 3 3 4 7 3 2 1 2 2 2 1 3 3 4 4 3 2 2 1 1 3 4 4 2 1 0 4 1 3 2 6 7 1 11 18 19 20
20 8 7 19 8 5 3 2 1 3 5 3 3 4 1 4 2 2 1 6 7 3 3 1 5 1 2 2 3 4 4 2 3 2 3 2 4 6 9 4 6 17 21 19 21
5 2 12 14 6 2 2 2 2 3 5 4 3 3 3 3 3 2 3 5 8 7 3 2 3 3 2 7 3 4 4 2 2 3 3 4 1 4 6 2 11 16 18 20 21
5 1 17 14 1 2 2 3 5 6 8 3 1 2 2 4 2 2 1 5 15 6 4 3 3 6 5 4 2 2 3 6 4 3 1 3 6 4 3 3 13 19 21 22 20
3 3 9 7 2 3 3 2 4 7 7 6 5 7 5 3 3 2 4 5 11 10 7 6 3 5 5 3 2 4 2 2 0 2 11 7 4 2 4 17 19 23 26 23 21
2 2 4 5 3 4 5 5 2 7 5 4 7 3 4 2 3 3 4 3 7 9 10 1 3 7 10 5 7 6 3 3 6 6 10 15 19 19 22 23 26 24 21 21 20
4 3 2 3 6 6 5 4 4 6 7 9 4 10 8 4 5 3 5 6 2 7 8 5 5 5 9 11 11 14 14 13 14 16 15 18 20 20 21 18 16 18 17 17 19
3 2 1 2 3 5 4 5 6 6 8 5 5 8 8 5 6 5 7 4 3 4 8 6 5 10 16 15 15 19 18 18 19 20 22 23 24 13 12 13 16 14 16 18 19
2 1 2 3 2 4 3 4 5 7 4 8 8 9 9 8 6 10 11 12 15 14 11 6 5 8 18 9 14 21 15 22 22 19 14 16 7 11 13 16 13 13 17 19 20
Wind_Direction
354 350 356 1 360 358 356 354 352 348 342 336 330 328 328 325 326 308 264 232 229 319 321 311 188 38 143 136 183 253 235 228 217 214 179 149 201 160 122 176 197 184 265 99 151
346 344 356 355 355 354 352 351 350 347 341 334 328 327 326 327 322 279 241 234 289 331 293 346 271 356 164 171 188 247 248 228 256 241 267 189 225 194 201 199 212 201 160 141 159
341 349 351 350 350 350 349 348 346 343 338 327 321 322 323 328 281 125 144 198 327 346 320 322 317 304 206 215 189 182 264 244 236 247 264 269 221 212 222 220 228 220 188 172 177
341 343 344 345 345 345 345 345 342 338 329 316 310 316 324 321 300 112 187 297 321 337 254 273 262 232 242 233 214 259 250 248 284 221 218 236 199 220 224 241 287 239 184 177 188
340 340 340 340 340 339 339 341 338 336 328 314 294 309 335 251 259 228 210 219 334 350 6 341 248 230 249 247 257 248 286 253 261 267 250 245 241 254 238 243 224 191 180 190 199
338 335 335 334 334 334 334 336 335 335 330 314 265 192 229 264 283 336 193 140 92 31 32 314 354 315 278 255 260 328 285 278 269 259 251 250 261 243 246 252 235 215 206 205 205
335 333 332 331 331 330 330 331 330 331 332 315 194 158 222 267 265 296 233 153 96 49 15 22 335 256 170 234 301 282 288 283 248 250 236 249 256 240 256 238 244 228 230 221 214
334 332 330 327 326 325 325 326 326 322 338 37 161 183 260 250 303 298 231 198 140 83 68 68 324 328 271 340 222 254 255 288 119 193 166 217 265 274 260 226 239 238 230 221 220
345 341 336 331 325 323 323 321 320 307 359 110 192 253 265 312 39 337 199 205 132 111 64 81 144 314 214 243 241 210 286 272 298 185 254 227 290 281 219 219 238 233 232 225 223
351 348 345 339 330 328 327 320 306 296 302 340 237 256 229 53 326 331 188 160 166 161 215 223 231 246 215 229 294 289 280 264 277 191 243 271 268 273 261 242 255 245 233 223 222
353 350 347 343 338 344 341 354 292 180 27 308 2 302 302 331 307 191 149 147 166 221 251 48 263 258 321 277 318 291 274 278 287 313 281 272 277 280 276 254 246 244 237 223 220
353 351 348 345 346 12 18 62 41 297 307 302 273 270 268 284 288 177 184 217 209 241 213 225 257 324 293 219 259 263 286 293 296 247 286 300 290 293 298 259 242 244 236 232 230
350 351 349 346 3 23 51 45 335 190 266 298 249 272 331 191 249 166 216 178 238 235 239 265 50 113 258 252 253 258 275 306 301 318 262 311 278 356 41 354 272 254 254 252 233
347 350 349 348 30 345 63 346 340 186 272 73 107 110 158 255 201 331 257 277 189 277 236 267 61 246 244 256 234 278 32 276 301 323 322 5 309 46 20 62 37 28 24 269 244
343 346 345 350 316 343 322 335 347 216 279 71 96 104 140 244 349 96 348 205 252 233 235 51 226 229 257 279 197 342 284 283 287 290 307 127 265 49 27 11 5 5 5 1 355
340 342 341 345 319 310 324 331 200 239 209 99 62 143 187 185 135 347 174 159 41 237 240 266 342 264 287 104 238 97 262 247 247 238 236 38 319 69 21 353 27 44 43 40 19
339 342 349 343 333 321 329 253 254 248 58 39 8 353 292 185 180 231 204 203 245 262 242 245 208 245 250 247 186 233 281 279 229 209 17 56 290 32 45 63 52 40 41 41 31
338 343 3 353 329 329 300 233 235 55 24 358 335 298 277 350 118 315 226 250 212 251 287 305 188 195 106 261 340 172 290 304 296 327 325 121 240 111 166 128 59 46 40 26 20
338 353 357 339 337 328 256 222 9 26 335 333 304 276 138 56 299 284 271 343 360 239 268 274 221 114 7 325 294 133 212 13 277 63 264 304 182 158 217 226 209 31 15 15 11
338 330 353 353 347 295 235 85 75 13 341 310 325 10 326 10 293 289 70 16 336 358 282 11 281 78 95 187 85 287 123 202 189 271 272 207 259 150 207 224 342 5 3 1 359
0 332 356 355 347 324 277 63 47 16 355 347 360 318 14 360 313 317 35 68 355 324 273 277 261 132 214 201 198 159 209 211 304 268 287 304 177 162 185 4 352 352 359 355 350
349 42 346 1 31 35 71 16 343 1 5 3 344 9 24 353 309 320 44 49 354 310 2 359 298 263 263 108 8 277 268 241 254 175 241 310 269 160 194 37 340 345 345 348 347
10 318 347 353 53 48 45 42 30 14 19 2 19 3 354 333 291 17 35 18 12 32 27 346 223 282 193 151 142 246 194 237 23 287 243 258 242 81 261 310 336 340 343 343 349
0 16 18 43 20 10 11 15 28 34 57 23 12 10 337 306 4 329 359 30 355 16 358 214 280 280 284 8 337 286 264 265 251 254 261 241 271 292 308 319 331 340 336 351 351
7 64 17 25 25 15 5 348 359 12 10 20 59 35 1 295 297 324 349 329 5 6 8 13 272 302 297 299 295 287 282 276 251 260 262 278 282 294 311 340 339 345 7 2 359
25 359 53 32 348 1 13 38 21 12 355 14 49 360 346 334 322 315 338 348 303 336 348 341 280 305 281 287 288 282 274 268 262 265 265 271 275 4 3 358 0 16 8 2 355
52 69 310 36 12 334 21 30 40 3 78 58 2 329 308 320 312 302 285 274 274 286 294 283 286 296 277 274 300 287 263 249 248 246 284 274 10 4 359 352 346 8 7 358 350